owner,sensor,date,latitude,longitude,vertical_datum,mass_concentration_of_oxygen_in_sea_water,qcFlag 
SCCF RECON,ioos:station:SCCF:13:1,2012-08-01T15:00:00Z,26.5255,-82.0032,2.74,-9999.0,1111122 
SCCF RECON,ioos:station:SCCF:13:1,2012-08-01T16:00:00Z,26.5255,-82.0032,2.82,-9999.0,1111122 
SCCF RECON,ioos:station:SCCF:13:1,2012-08-01T17:00:00Z,26.5255,-82.0032,2.861,-9999.0,1111122 
SCCF RECON,ioos:station:SCCF:13:1,2012-08-01T18:00:00Z,26.5255,-82.0032,2.842,-9999.0,1111122 
SCCF RECON,ioos:station:SCCF:13:1,2012-08-01T19:00:00Z,26.5255,-82.0032,2.749,-9999.0,1111122 
SCCF RECON,ioos:station:SCCF:13:1,2012-08-01T20:00:00Z,26.5255,-82.0032,2.623,-9999.0,1111122 
SCCF RECON,ioos:station:SCCF:13:1,2012-08-01T21:00:00Z,26.5255,-82.0032,2.51,6.01,1111122 
SCCF RECON,ioos:station:SCCF:13:1,2012-08-01T22:00:00Z,26.5255,-82.0032,2.415,6.25,1111122 
SCCF RECON,ioos:station:SCCF:13:1,2012-08-01T23:00:00Z,26.5255,-82.0032,2.312,6.08,1111122 
SCCF RECON,ioos:station:SCCF:13:1,2012-08-02T00:00:00Z,26.5255,-82.0032,2.229,6.0,1111122 
SCCF RECON,ioos:station:SCCF:13:1,2012-08-02T01:00:00Z,26.5255,-82.0032,2.17,5.8,1111122 
SCCF RECON,ioos:station:SCCF:13:1,2012-08-02T02:00:00Z,26.5255,-82.0032,2.202,5.47,1111122 
SCCF RECON,ioos:station:SCCF:13:1,2012-08-02T03:00:00Z,26.5255,-82.0032,2.353,5.68,1111122 
SCCF RECON,ioos:station:SCCF:13:1,2012-08-02T04:00:00Z,26.5255,-82.0032,2.45,5.46,1111122 
SCCF RECON,ioos:station:SCCF:13:1,2012-08-02T05:00:00Z,26.5255,-82.0032,2.523,4.8,1111122 
SCCF RECON,ioos:station:SCCF:13:1,2012-08-02T06:00:00Z,26.5255,-82.0032,2.59,5.06,1111122 
SCCF RECON,ioos:station:SCCF:13:1,2012-08-02T07:00:00Z,26.5255,-82.0032,2.59,5.13,1111122 
SCCF RECON,ioos:station:SCCF:13:1,2012-08-02T08:00:00Z,26.5255,-82.0032,2.53,5.13,1111122 
SCCF RECON,ioos:station:SCCF:13:1,2012-08-02T09:00:00Z,26.5255,-82.0032,2.45,5.0,1111122 
SCCF RECON,ioos:station:SCCF:13:1,2012-08-02T10:00:00Z,26.5255,-82.0032,2.38,4.39,1111122 
SCCF RECON,ioos:station:SCCF:13:1,2012-08-02T11:00:00Z,26.5255,-82.0032,2.34,4.22,1111122 
SCCF RECON,ioos:station:SCCF:13:1,2012-08-02T12:00:00Z,26.5255,-82.0032,2.32,4.43,1111122 
SCCF RECON,ioos:station:SCCF:13:1,2012-08-02T13:00:00Z,26.5255,-82.0032,2.362,4.67,1111122 
SCCF RECON,ioos:station:SCCF:13:1,2012-08-02T14:00:00Z,26.5255,-82.0032,2.51,4.2,1111122 
SCCF RECON,ioos:station:SCCF:13:1,2012-08-02T15:00:00Z,26.5255,-82.0032,2.64,4.25,1111122 
SCCF RECON,ioos:station:SCCF:13:1,2012-08-02T16:00:00Z,26.5255,-82.0032,2.72,4.92,1111122 
SCCF RECON,ioos:station:SCCF:13:1,2012-08-02T17:00:00Z,26.5255,-82.0032,2.761,5.44,1111122 
SCCF RECON,ioos:station:SCCF:13:1,2012-08-02T18:00:00Z,26.5255,-82.0032,2.799,5.78,1111122 
SCCF RECON,ioos:station:SCCF:13:1,2012-08-02T19:00:00Z,26.5255,-82.0032,2.78,6.28,1111122 
SCCF RECON,ioos:station:SCCF:13:1,2012-08-02T20:00:00Z,26.5255,-82.0032,2.69,6.17,1111122 
SCCF RECON,ioos:station:SCCF:13:1,2012-08-02T21:00:00Z,26.5255,-82.0032,2.57,6.43,1111122 
SCCF RECON,ioos:station:SCCF:13:1,2012-08-02T22:00:00Z,26.5255,-82.0032,2.46,6.27,1111122 
SCCF RECON,ioos:station:SCCF:13:1,2012-08-02T23:00:00Z,26.5255,-82.0032,2.379,6.35,1111122 
SCCF RECON,ioos:station:SCCF:13:1,2012-08-03T00:00:00Z,26.5255,-82.0032,2.28,6.3,1111122 
SCCF RECON,ioos:station:SCCF:13:1,2012-08-03T01:00:00Z,26.5255,-82.0032,2.21,6.4,1111122 
SCCF RECON,ioos:station:SCCF:13:1,2012-08-03T02:00:00Z,26.5255,-82.0032,2.2,5.89,1111122 
SCCF RECON,ioos:station:SCCF:13:1,2012-08-03T03:00:00Z,26.5255,-82.0032,2.298,5.87,1111122 
SCCF RECON,ioos:station:SCCF:13:1,2012-08-03T04:00:00Z,26.5255,-82.0032,2.42,5.76,1111122 
SCCF RECON,ioos:station:SCCF:13:1,2012-08-03T05:00:00Z,26.5255,-82.0032,2.49,4.94,1111122 
SCCF RECON,ioos:station:SCCF:13:1,2012-08-03T06:00:00Z,26.5255,-82.0032,2.54,4.98,1111122 
SCCF RECON,ioos:station:SCCF:13:1,2012-08-03T07:00:00Z,26.5255,-82.0032,2.58,5.18,1111122 
SCCF RECON,ioos:station:SCCF:13:1,2012-08-03T08:00:00Z,26.5255,-82.0032,2.56,5.13,1111122 
SCCF RECON,ioos:station:SCCF:13:1,2012-08-03T09:00:00Z,26.5255,-82.0032,2.5,4.96,1111122 
SCCF RECON,ioos:station:SCCF:13:1,2012-08-03T10:00:00Z,26.5255,-82.0032,2.43,5.08,1111122 
SCCF RECON,ioos:station:SCCF:13:1,2012-08-03T11:00:00Z,26.5255,-82.0032,2.36,4.35,1111122 
SCCF RECON,ioos:station:SCCF:13:1,2012-08-03T12:00:00Z,26.5255,-82.0032,2.319,4.42,1111122 
SCCF RECON,ioos:station:SCCF:13:1,2012-08-03T13:00:00Z,26.5255,-82.0032,2.3,4.69,1111122 
SCCF RECON,ioos:station:SCCF:13:1,2012-08-03T14:00:00Z,26.5255,-82.0032,2.36,5.05,1111122 
SCCF RECON,ioos:station:SCCF:13:1,2012-08-03T15:00:00Z,26.5255,-82.0032,2.5,4.52,1111122 
SCCF RECON,ioos:station:SCCF:13:1,2012-08-03T16:00:00Z,26.5255,-82.0032,2.607,4.74,1111122 
SCCF RECON,ioos:station:SCCF:13:1,2012-08-03T17:00:00Z,26.5255,-82.0032,2.68,5.1,1111122 
SCCF RECON,ioos:station:SCCF:13:1,2012-08-03T18:00:00Z,26.5255,-82.0032,2.731,5.68,1111122 
SCCF RECON,ioos:station:SCCF:13:1,2012-08-03T19:00:00Z,26.5255,-82.0032,2.754,5.89,1111122 
SCCF RECON,ioos:station:SCCF:13:1,2012-08-03T20:00:00Z,26.5255,-82.0032,2.73,6.17,1111122 
SCCF RECON,ioos:station:SCCF:13:1,2012-08-03T21:00:00Z,26.5255,-82.0032,2.64,5.99,1111122 
SCCF RECON,ioos:station:SCCF:13:1,2012-08-03T22:00:00Z,26.5255,-82.0032,2.53,5.9,1111122 
SCCF RECON,ioos:station:SCCF:13:1,2012-08-03T23:00:00Z,26.5255,-82.0032,2.444,6.11,1111122 
SCCF RECON,ioos:station:SCCF:13:1,2012-08-04T00:00:00Z,26.5255,-82.0032,2.35,6.09,1111122 
SCCF RECON,ioos:station:SCCF:13:1,2012-08-04T01:00:00Z,26.5255,-82.0032,2.26,6.25,1111122 
SCCF RECON,ioos:station:SCCF:13:1,2012-08-04T02:00:00Z,26.5255,-82.0032,2.197,6.02,1111122 
SCCF RECON,ioos:station:SCCF:13:1,2012-08-04T03:00:00Z,26.5255,-82.0032,2.22,5.72,1111122 
SCCF RECON,ioos:station:SCCF:13:1,2012-08-04T04:00:00Z,26.5255,-82.0032,2.32,5.72,1111122 
SCCF RECON,ioos:station:SCCF:13:1,2012-08-04T05:00:00Z,26.5255,-82.0032,2.45,5.52,1111122 
SCCF RECON,ioos:station:SCCF:13:1,2012-08-04T06:00:00Z,26.5255,-82.0032,2.53,5.01,1111122 
SCCF RECON,ioos:station:SCCF:13:1,2012-08-04T07:00:00Z,26.5255,-82.0032,2.553,4.89,1111122 
SCCF RECON,ioos:station:SCCF:13:1,2012-08-04T08:00:00Z,26.5255,-82.0032,2.58,4.81,1111122 
SCCF RECON,ioos:station:SCCF:13:1,2012-08-04T09:00:00Z,26.5255,-82.0032,2.57,4.96,1111122 
SCCF RECON,ioos:station:SCCF:13:1,2012-08-04T10:00:00Z,26.5255,-82.0032,2.474,4.87,1111122 
SCCF RECON,ioos:station:SCCF:13:1,2012-08-04T11:00:00Z,26.5255,-82.0032,2.4,4.58,1111122 
SCCF RECON,ioos:station:SCCF:13:1,2012-08-04T12:00:00Z,26.5255,-82.0032,2.336,4.19,1111122 
SCCF RECON,ioos:station:SCCF:13:1,2012-08-04T13:00:00Z,26.5255,-82.0032,2.299,4.78,1111122 
SCCF RECON,ioos:station:SCCF:13:1,2012-08-04T14:00:00Z,26.5255,-82.0032,2.3,4.95,1111122 
SCCF RECON,ioos:station:SCCF:13:1,2012-08-04T15:00:00Z,26.5255,-82.0032,2.39,5.35,1111122 
SCCF RECON,ioos:station:SCCF:13:1,2012-08-04T16:00:00Z,26.5255,-82.0032,2.504,4.53,1111122 
SCCF RECON,ioos:station:SCCF:13:1,2012-08-04T17:00:00Z,26.5255,-82.0032,2.6,4.93,1111122 
SCCF RECON,ioos:station:SCCF:13:1,2012-08-04T18:00:00Z,26.5255,-82.0032,2.67,5.31,1111122 
SCCF RECON,ioos:station:SCCF:13:1,2012-08-04T19:00:00Z,26.5255,-82.0032,2.71,5.82,1111122 
SCCF RECON,ioos:station:SCCF:13:1,2012-08-04T20:00:00Z,26.5255,-82.0032,2.73,5.86,1111122 
SCCF RECON,ioos:station:SCCF:13:1,2012-08-04T21:00:00Z,26.5255,-82.0032,2.69,6.17,1111122 
SCCF RECON,ioos:station:SCCF:13:1,2012-08-04T22:00:00Z,26.5255,-82.0032,2.573,5.79,1111122 
SCCF RECON,ioos:station:SCCF:13:1,2012-08-04T23:00:00Z,26.5255,-82.0032,2.475,6.21,1111122 
SCCF RECON,ioos:station:SCCF:13:1,2012-08-05T00:00:00Z,26.5255,-82.0032,2.41,5.69,1111122 
SCCF RECON,ioos:station:SCCF:13:1,2012-08-05T01:00:00Z,26.5255,-82.0032,2.339,5.97,1111122 
SCCF RECON,ioos:station:SCCF:13:1,2012-08-05T02:00:00Z,26.5255,-82.0032,2.299,6.08,1111122 
SCCF RECON,ioos:station:SCCF:13:1,2012-08-05T03:00:00Z,26.5255,-82.0032,2.249,6.42,1111122 
SCCF RECON,ioos:station:SCCF:13:1,2012-08-05T04:00:00Z,26.5255,-82.0032,2.31,6.18,1111122 
SCCF RECON,ioos:station:SCCF:13:1,2012-08-05T05:00:00Z,26.5255,-82.0032,2.46,5.94,1111122 
SCCF RECON,ioos:station:SCCF:13:1,2012-08-05T06:00:00Z,26.5255,-82.0032,2.54,4.97,1111122 
SCCF RECON,ioos:station:SCCF:13:1,2012-08-05T07:00:00Z,26.5255,-82.0032,2.57,4.65,1111122 
SCCF RECON,ioos:station:SCCF:13:1,2012-08-05T08:00:00Z,26.5255,-82.0032,2.61,4.79,1111122 
SCCF RECON,ioos:station:SCCF:13:1,2012-08-05T09:00:00Z,26.5255,-82.0032,2.62,4.98,1111122 
SCCF RECON,ioos:station:SCCF:13:1,2012-08-05T10:00:00Z,26.5255,-82.0032,2.581,5.0,1111122 
SCCF RECON,ioos:station:SCCF:13:1,2012-08-05T11:00:00Z,26.5255,-82.0032,2.52,4.93,1111122 
SCCF RECON,ioos:station:SCCF:13:1,2012-08-05T12:00:00Z,26.5255,-82.0032,2.42,4.39,1111122 
SCCF RECON,ioos:station:SCCF:13:1,2012-08-05T13:00:00Z,26.5255,-82.0032,2.35,4.67,1111122 
SCCF RECON,ioos:station:SCCF:13:1,2012-08-05T14:00:00Z,26.5255,-82.0032,2.291,4.9,1111122 
SCCF RECON,ioos:station:SCCF:13:1,2012-08-05T15:00:00Z,26.5255,-82.0032,2.292,5.24,1111122 
SCCF RECON,ioos:station:SCCF:13:1,2012-08-05T16:00:00Z,26.5255,-82.0032,2.386,5.8,1111122 
SCCF RECON,ioos:station:SCCF:13:1,2012-08-05T17:00:00Z,26.5255,-82.0032,2.5,5.06,1111122 
SCCF RECON,ioos:station:SCCF:13:1,2012-08-05T18:00:00Z,26.5255,-82.0032,2.571,5.68,1111122 
SCCF RECON,ioos:station:SCCF:13:1,2012-08-05T19:00:00Z,26.5255,-82.0032,2.624,5.49,1111122 
SCCF RECON,ioos:station:SCCF:13:1,2012-08-05T20:00:00Z,26.5255,-82.0032,2.662,5.99,1111122 
SCCF RECON,ioos:station:SCCF:13:1,2012-08-05T21:00:00Z,26.5255,-82.0032,2.679,5.95,1111122 
SCCF RECON,ioos:station:SCCF:13:1,2012-08-05T22:00:00Z,26.5255,-82.0032,2.603,5.54,1111122 
SCCF RECON,ioos:station:SCCF:13:1,2012-08-05T23:00:00Z,26.5255,-82.0032,2.54,5.39,1111122 
SCCF RECON,ioos:station:SCCF:13:1,2012-08-06T00:00:00Z,26.5255,-82.0032,2.42,5.28,1111122 
SCCF RECON,ioos:station:SCCF:13:1,2012-08-06T01:00:00Z,26.5255,-82.0032,2.36,5.57,1111122 
SCCF RECON,ioos:station:SCCF:13:1,2012-08-06T02:00:00Z,26.5255,-82.0032,2.3,5.67,1111122 
SCCF RECON,ioos:station:SCCF:13:1,2012-08-06T03:00:00Z,26.5255,-82.0032,2.242,5.87,1111122 
SCCF RECON,ioos:station:SCCF:13:1,2012-08-06T04:00:00Z,26.5255,-82.0032,2.268,5.6,1111122 
SCCF RECON,ioos:station:SCCF:13:1,2012-08-06T05:00:00Z,26.5255,-82.0032,2.39,5.58,1111122 
SCCF RECON,ioos:station:SCCF:13:1,2012-08-06T06:00:00Z,26.5255,-82.0032,2.49,4.66,1111122 
SCCF RECON,ioos:station:SCCF:13:1,2012-08-06T07:00:00Z,26.5255,-82.0032,2.54,4.45,1111122 
SCCF RECON,ioos:station:SCCF:13:1,2012-08-06T08:00:00Z,26.5255,-82.0032,2.581,4.47,1111122 
SCCF RECON,ioos:station:SCCF:13:1,2012-08-06T09:00:00Z,26.5255,-82.0032,2.57,4.45,1111122 
SCCF RECON,ioos:station:SCCF:13:1,2012-08-06T10:00:00Z,26.5255,-82.0032,2.54,4.46,1111122 
SCCF RECON,ioos:station:SCCF:13:1,2012-08-06T11:00:00Z,26.5255,-82.0032,2.46,4.32,1111122 
SCCF RECON,ioos:station:SCCF:13:1,2012-08-06T12:00:00Z,26.5255,-82.0032,2.43,3.96,1111122 
SCCF RECON,ioos:station:SCCF:13:1,2012-08-06T13:00:00Z,26.5255,-82.0032,2.35,4.29,1111122 
SCCF RECON,ioos:station:SCCF:13:1,2012-08-06T14:00:00Z,26.5255,-82.0032,2.27,4.87,1111122 
SCCF RECON,ioos:station:SCCF:13:1,2012-08-06T15:00:00Z,26.5255,-82.0032,2.22,5.27,1111122 
SCCF RECON,ioos:station:SCCF:13:1,2012-08-06T16:00:00Z,26.5255,-82.0032,2.25,5.84,1111122 
SCCF RECON,ioos:station:SCCF:13:1,2012-08-06T17:00:00Z,26.5255,-82.0032,2.352,6.29,1111122 
SCCF RECON,ioos:station:SCCF:13:1,2012-08-06T18:00:00Z,26.5255,-82.0032,2.46,5.71,1111122 
SCCF RECON,ioos:station:SCCF:13:1,2012-08-06T19:00:00Z,26.5255,-82.0032,2.53,6.39,1111122 
SCCF RECON,ioos:station:SCCF:13:1,2012-08-06T20:00:00Z,26.5255,-82.0032,2.58,5.87,1111122 
SCCF RECON,ioos:station:SCCF:13:1,2012-08-06T21:00:00Z,26.5255,-82.0032,2.666,6.17,1111122 
SCCF RECON,ioos:station:SCCF:13:1,2012-08-06T22:00:00Z,26.5255,-82.0032,2.639,5.99,1111122 
SCCF RECON,ioos:station:SCCF:13:1,2012-08-06T23:00:00Z,26.5255,-82.0032,2.56,5.69,1111122 
SCCF RECON,ioos:station:SCCF:13:1,2012-08-07T00:00:00Z,26.5255,-82.0032,2.462,5.56,1111122 
SCCF RECON,ioos:station:SCCF:13:1,2012-08-07T01:00:00Z,26.5255,-82.0032,2.43,5.26,1111122 
SCCF RECON,ioos:station:SCCF:13:1,2012-08-07T02:00:00Z,26.5255,-82.0032,2.37,5.81,1111122 
SCCF RECON,ioos:station:SCCF:13:1,2012-08-07T03:00:00Z,26.5255,-82.0032,2.35,6.0,1111122 
SCCF RECON,ioos:station:SCCF:13:1,2012-08-07T04:00:00Z,26.5255,-82.0032,2.32,6.1,1111122 
SCCF RECON,ioos:station:SCCF:13:1,2012-08-07T05:00:00Z,26.5255,-82.0032,2.374,5.89,1111122 
SCCF RECON,ioos:station:SCCF:13:1,2012-08-07T06:00:00Z,26.5255,-82.0032,2.48,5.28,1111122 
SCCF RECON,ioos:station:SCCF:13:1,2012-08-07T07:00:00Z,26.5255,-82.0032,2.539,4.63,1111122 
SCCF RECON,ioos:station:SCCF:13:1,2012-08-07T08:00:00Z,26.5255,-82.0032,2.6,4.42,1111122 
SCCF RECON,ioos:station:SCCF:13:1,2012-08-07T09:00:00Z,26.5255,-82.0032,2.657,4.74,1111122 
SCCF RECON,ioos:station:SCCF:13:1,2012-08-07T10:00:00Z,26.5255,-82.0032,2.65,4.7,1111122 
SCCF RECON,ioos:station:SCCF:13:1,2012-08-07T11:00:00Z,26.5255,-82.0032,2.6,4.36,1111122 
SCCF RECON,ioos:station:SCCF:13:1,2012-08-07T12:00:00Z,26.5255,-82.0032,2.52,4.32,1111122 
SCCF RECON,ioos:station:SCCF:13:1,2012-08-07T13:00:00Z,26.5255,-82.0032,2.412,4.12,1111122 
SCCF RECON,ioos:station:SCCF:13:1,2012-08-07T14:00:00Z,26.5255,-82.0032,2.36,4.9,1111122 
SCCF RECON,ioos:station:SCCF:13:1,2012-08-07T15:00:00Z,26.5255,-82.0032,2.317,5.44,1111122 
SCCF RECON,ioos:station:SCCF:13:1,2012-08-07T16:00:00Z,26.5255,-82.0032,2.27,5.91,1111122 
SCCF RECON,ioos:station:SCCF:13:1,2012-08-07T17:00:00Z,26.5255,-82.0032,2.3,6.52,1111122 
SCCF RECON,ioos:station:SCCF:13:1,2012-08-07T18:00:00Z,26.5255,-82.0032,2.373,6.37,1111122 
SCCF RECON,ioos:station:SCCF:13:1,2012-08-07T19:00:00Z,26.5255,-82.0032,2.45,5.99,1111122 
SCCF RECON,ioos:station:SCCF:13:1,2012-08-07T20:00:00Z,26.5255,-82.0032,2.503,7.38,1111122 
SCCF RECON,ioos:station:SCCF:13:1,2012-08-07T21:00:00Z,26.5255,-82.0032,2.53,6.94,1111122 
SCCF RECON,ioos:station:SCCF:13:1,2012-08-07T22:00:00Z,26.5255,-82.0032,2.544,6.3,1111122 
SCCF RECON,ioos:station:SCCF:13:1,2012-08-07T23:00:00Z,26.5255,-82.0032,2.536,6.82,1111122 
SCCF RECON,ioos:station:SCCF:13:1,2012-08-08T00:00:00Z,26.5255,-82.0032,2.55,6.47,1111122 
SCCF RECON,ioos:station:SCCF:13:1,2012-08-08T01:00:00Z,26.5255,-82.0032,2.54,6.79,1111122 
SCCF RECON,ioos:station:SCCF:13:1,2012-08-08T02:00:00Z,26.5255,-82.0032,2.48,6.75,1111122 
SCCF RECON,ioos:station:SCCF:13:1,2012-08-08T03:00:00Z,26.5255,-82.0032,2.41,6.09,1111122 
SCCF RECON,ioos:station:SCCF:13:1,2012-08-08T04:00:00Z,26.5255,-82.0032,2.38,6.75,1111122 
SCCF RECON,ioos:station:SCCF:13:1,2012-08-08T05:00:00Z,26.5255,-82.0032,2.41,6.96,1111122 
SCCF RECON,ioos:station:SCCF:13:1,2012-08-08T06:00:00Z,26.5255,-82.0032,2.503,6.71,1111122 
SCCF RECON,ioos:station:SCCF:13:1,2012-08-08T07:00:00Z,26.5255,-82.0032,2.58,5.58,1111122 
SCCF RECON,ioos:station:SCCF:13:1,2012-08-08T08:00:00Z,26.5255,-82.0032,2.63,5.56,1111122 
SCCF RECON,ioos:station:SCCF:13:1,2012-08-08T09:00:00Z,26.5255,-82.0032,2.67,5.6,1111122 
SCCF RECON,ioos:station:SCCF:13:1,2012-08-08T10:00:00Z,26.5255,-82.0032,2.69,5.4,1111122 
SCCF RECON,ioos:station:SCCF:13:1,2012-08-08T11:00:00Z,26.5255,-82.0032,2.673,5.08,1111122 
SCCF RECON,ioos:station:SCCF:13:1,2012-08-08T12:00:00Z,26.5255,-82.0032,2.64,4.36,1111122 
SCCF RECON,ioos:station:SCCF:13:1,2012-08-08T13:00:00Z,26.5255,-82.0032,2.577,4.57,1111122 
SCCF RECON,ioos:station:SCCF:13:1,2012-08-08T14:00:00Z,26.5255,-82.0032,2.49,4.68,1111122 
SCCF RECON,ioos:station:SCCF:13:1,2012-08-08T15:00:00Z,26.5255,-82.0032,2.41,5.8,1111122 
SCCF RECON,ioos:station:SCCF:13:1,2012-08-08T16:00:00Z,26.5255,-82.0032,2.348,6.63,1111122 
SCCF RECON,ioos:station:SCCF:13:1,2012-08-08T17:00:00Z,26.5255,-82.0032,2.3,7.03,1111122 
SCCF RECON,ioos:station:SCCF:13:1,2012-08-08T18:00:00Z,26.5255,-82.0032,2.3,7.56,1111122 
SCCF RECON,ioos:station:SCCF:13:1,2012-08-08T19:00:00Z,26.5255,-82.0032,2.371,7.86,1111122 
SCCF RECON,ioos:station:SCCF:13:1,2012-08-08T20:00:00Z,26.5255,-82.0032,2.45,7.81,1111122 
SCCF RECON,ioos:station:SCCF:13:1,2012-08-08T21:00:00Z,26.5255,-82.0032,2.5,8.24,1111122 
SCCF RECON,ioos:station:SCCF:13:1,2012-08-08T22:00:00Z,26.5255,-82.0032,2.491,7.52,1111122 
SCCF RECON,ioos:station:SCCF:13:1,2012-08-08T23:00:00Z,26.5255,-82.0032,2.483,6.92,1111122 
SCCF RECON,ioos:station:SCCF:13:1,2012-08-09T00:00:00Z,26.5255,-82.0032,2.49,5.74,1111122 
SCCF RECON,ioos:station:SCCF:13:1,2012-08-09T01:00:00Z,26.5255,-82.0032,2.5,5.88,1111122 
SCCF RECON,ioos:station:SCCF:13:1,2012-08-09T02:00:00Z,26.5255,-82.0032,2.469,6.45,1111122 
SCCF RECON,ioos:station:SCCF:13:1,2012-08-09T03:00:00Z,26.5255,-82.0032,2.42,6.37,1111122 
SCCF RECON,ioos:station:SCCF:13:1,2012-08-09T04:00:00Z,26.5255,-82.0032,2.39,6.69,1111122 
SCCF RECON,ioos:station:SCCF:13:1,2012-08-09T05:00:00Z,26.5255,-82.0032,2.37,7.07,1111122 
SCCF RECON,ioos:station:SCCF:13:1,2012-08-09T06:00:00Z,26.5255,-82.0032,2.39,7.19,1111122 
SCCF RECON,ioos:station:SCCF:13:1,2012-08-09T07:00:00Z,26.5255,-82.0032,2.44,5.03,1111122 
SCCF RECON,ioos:station:SCCF:13:1,2012-08-09T08:00:00Z,26.5255,-82.0032,2.52,5.05,1111122 
SCCF RECON,ioos:station:SCCF:13:1,2012-08-09T09:00:00Z,26.5255,-82.0032,2.57,5.35,1111122 
SCCF RECON,ioos:station:SCCF:13:1,2012-08-09T10:00:00Z,26.5255,-82.0032,2.62,5.15,1111122 
SCCF RECON,ioos:station:SCCF:13:1,2012-08-09T11:00:00Z,26.5255,-82.0032,2.65,4.99,1111122 
SCCF RECON,ioos:station:SCCF:13:1,2012-08-09T12:00:00Z,26.5255,-82.0032,2.63,4.69,1111122 
SCCF RECON,ioos:station:SCCF:13:1,2012-08-09T13:00:00Z,26.5255,-82.0032,2.57,4.61,1111122 
SCCF RECON,ioos:station:SCCF:13:1,2012-08-09T14:00:00Z,26.5255,-82.0032,2.469,4.49,1111122 
SCCF RECON,ioos:station:SCCF:13:1,2012-08-09T15:00:00Z,26.5255,-82.0032,2.38,5.43,1111122 
SCCF RECON,ioos:station:SCCF:13:1,2012-08-09T16:00:00Z,26.5255,-82.0032,2.33,6.33,1111122 
SCCF RECON,ioos:station:SCCF:13:1,2012-08-09T17:00:00Z,26.5255,-82.0032,2.29,6.74,1111122 
SCCF RECON,ioos:station:SCCF:13:1,2012-08-09T18:00:00Z,26.5255,-82.0032,2.24,7.14,1111122 
SCCF RECON,ioos:station:SCCF:13:1,2012-08-09T19:00:00Z,26.5255,-82.0032,2.208,7.4,1111122 
SCCF RECON,ioos:station:SCCF:13:1,2012-08-09T20:00:00Z,26.5255,-82.0032,2.25,7.66,1111122 
SCCF RECON,ioos:station:SCCF:13:1,2012-08-09T21:00:00Z,26.5255,-82.0032,2.338,7.54,1111122 
SCCF RECON,ioos:station:SCCF:13:1,2012-08-09T22:00:00Z,26.5255,-82.0032,2.37,5.58,1111122 
SCCF RECON,ioos:station:SCCF:13:1,2012-08-09T23:00:00Z,26.5255,-82.0032,2.437,7.78,1111122 
SCCF RECON,ioos:station:SCCF:13:1,2012-08-10T00:00:00Z,26.5255,-82.0032,2.48,6.32,1111122 
SCCF RECON,ioos:station:SCCF:13:1,2012-08-10T01:00:00Z,26.5255,-82.0032,2.502,6.26,1111122 
SCCF RECON,ioos:station:SCCF:13:1,2012-08-10T02:00:00Z,26.5255,-82.0032,2.49,6.72,1111122 
SCCF RECON,ioos:station:SCCF:13:1,2012-08-10T03:00:00Z,26.5255,-82.0032,2.51,5.98,1111122 
SCCF RECON,ioos:station:SCCF:13:1,2012-08-10T04:00:00Z,26.5255,-82.0032,2.549,5.82,1111122 
SCCF RECON,ioos:station:SCCF:13:1,2012-08-10T05:00:00Z,26.5255,-82.0032,2.441,5.71,1111122 
SCCF RECON,ioos:station:SCCF:13:1,2012-08-10T06:00:00Z,26.5255,-82.0032,2.43,5.7,1111122 
SCCF RECON,ioos:station:SCCF:13:1,2012-08-10T07:00:00Z,26.5255,-82.0032,2.47,5.19,1111122 
SCCF RECON,ioos:station:SCCF:13:1,2012-08-10T08:00:00Z,26.5255,-82.0032,2.505,3.86,1111122 
SCCF RECON,ioos:station:SCCF:13:1,2012-08-10T09:00:00Z,26.5255,-82.0032,2.58,4.78,1111122 
SCCF RECON,ioos:station:SCCF:13:1,2012-08-10T10:00:00Z,26.5255,-82.0032,2.64,5.1,1111122 
SCCF RECON,ioos:station:SCCF:13:1,2012-08-10T11:00:00Z,26.5255,-82.0032,2.69,5.22,1111122 
SCCF RECON,ioos:station:SCCF:13:1,2012-08-10T12:00:00Z,26.5255,-82.0032,2.71,5.21,1111122 
SCCF RECON,ioos:station:SCCF:13:1,2012-08-10T13:00:00Z,26.5255,-82.0032,2.67,4.75,1111122 
SCCF RECON,ioos:station:SCCF:13:1,2012-08-10T14:00:00Z,26.5255,-82.0032,2.61,4.4,1111122 
SCCF RECON,ioos:station:SCCF:13:1,2012-08-10T15:00:00Z,26.5255,-82.0032,2.55,4.45,1111122 
SCCF RECON,ioos:station:SCCF:13:1,2012-08-10T16:00:00Z,26.5255,-82.0032,2.479,5.05,1111122 
SCCF RECON,ioos:station:SCCF:13:1,2012-08-10T17:00:00Z,26.5255,-82.0032,2.39,6.05,1111122 
SCCF RECON,ioos:station:SCCF:13:1,2012-08-10T18:00:00Z,26.5255,-82.0032,2.31,6.41,1111122 
SCCF RECON,ioos:station:SCCF:13:1,2012-08-10T19:00:00Z,26.5255,-82.0032,2.256,6.82,1111122 
SCCF RECON,ioos:station:SCCF:13:1,2012-08-10T20:00:00Z,26.5255,-82.0032,2.225,6.98,1111122 
SCCF RECON,ioos:station:SCCF:13:1,2012-08-10T21:00:00Z,26.5255,-82.0032,2.269,6.75,1111122 
SCCF RECON,ioos:station:SCCF:13:1,2012-08-10T22:00:00Z,26.5255,-82.0032,2.35,6.5,1111122 
SCCF RECON,ioos:station:SCCF:13:1,2012-08-10T23:00:00Z,26.5255,-82.0032,2.39,5.9,1111122 
SCCF RECON,ioos:station:SCCF:13:1,2012-08-11T00:00:00Z,26.5255,-82.0032,2.441,5.3,1111122 
SCCF RECON,ioos:station:SCCF:13:1,2012-08-11T01:00:00Z,26.5255,-82.0032,2.469,5.81,1111122 
SCCF RECON,ioos:station:SCCF:13:1,2012-08-11T02:00:00Z,26.5255,-82.0032,2.42,5.65,1111122 
SCCF RECON,ioos:station:SCCF:13:1,2012-08-11T03:00:00Z,26.5255,-82.0032,2.44,5.42,1111122 
SCCF RECON,ioos:station:SCCF:13:1,2012-08-11T04:00:00Z,26.5255,-82.0032,2.5,5.44,1111122 
SCCF RECON,ioos:station:SCCF:13:1,2012-08-11T05:00:00Z,26.5255,-82.0032,2.49,5.14,1111122 
SCCF RECON,ioos:station:SCCF:13:1,2012-08-11T06:00:00Z,26.5255,-82.0032,2.438,5.26,1111122 
SCCF RECON,ioos:station:SCCF:13:1,2012-08-11T07:00:00Z,26.5255,-82.0032,2.43,5.11,1111122 
SCCF RECON,ioos:station:SCCF:13:1,2012-08-11T08:00:00Z,26.5255,-82.0032,2.51,4.34,1111122 
SCCF RECON,ioos:station:SCCF:13:1,2012-08-11T09:00:00Z,26.5255,-82.0032,2.599,4.75,1111122 
SCCF RECON,ioos:station:SCCF:13:1,2012-08-11T10:00:00Z,26.5255,-82.0032,2.63,4.97,1111122 
SCCF RECON,ioos:station:SCCF:13:1,2012-08-11T11:00:00Z,26.5255,-82.0032,2.64,4.69,1111122 
SCCF RECON,ioos:station:SCCF:13:1,2012-08-11T12:00:00Z,26.5255,-82.0032,2.68,4.66,1111122 
SCCF RECON,ioos:station:SCCF:13:1,2012-08-11T13:00:00Z,26.5255,-82.0032,2.707,4.64,1111122 
SCCF RECON,ioos:station:SCCF:13:1,2012-08-11T14:00:00Z,26.5255,-82.0032,2.7,4.76,1111122 
SCCF RECON,ioos:station:SCCF:13:1,2012-08-11T15:00:00Z,26.5255,-82.0032,2.648,4.41,1111122 
SCCF RECON,ioos:station:SCCF:13:1,2012-08-11T16:00:00Z,26.5255,-82.0032,2.552,4.43,1111122 
SCCF RECON,ioos:station:SCCF:13:1,2012-08-11T17:00:00Z,26.5255,-82.0032,2.474,4.56,1111122 
SCCF RECON,ioos:station:SCCF:13:1,2012-08-11T18:00:00Z,26.5255,-82.0032,2.396,5.14,1111122 
SCCF RECON,ioos:station:SCCF:13:1,2012-08-11T19:00:00Z,26.5255,-82.0032,2.311,5.9,1111122 
SCCF RECON,ioos:station:SCCF:13:1,2012-08-11T20:00:00Z,26.5255,-82.0032,2.24,6.19,1111122 
SCCF RECON,ioos:station:SCCF:13:1,2012-08-11T21:00:00Z,26.5255,-82.0032,2.22,6.36,1111122 
SCCF RECON,ioos:station:SCCF:13:1,2012-08-11T22:00:00Z,26.5255,-82.0032,2.27,5.89,1111122 
SCCF RECON,ioos:station:SCCF:13:1,2012-08-11T23:00:00Z,26.5255,-82.0032,2.33,6.16,1111122 
SCCF RECON,ioos:station:SCCF:13:1,2012-08-12T00:00:00Z,26.5255,-82.0032,2.37,5.4,1111122 
SCCF RECON,ioos:station:SCCF:13:1,2012-08-12T01:00:00Z,26.5255,-82.0032,2.413,4.86,1111122 
SCCF RECON,ioos:station:SCCF:13:1,2012-08-12T02:00:00Z,26.5255,-82.0032,2.45,5.46,1111122 
SCCF RECON,ioos:station:SCCF:13:1,2012-08-12T03:00:00Z,26.5255,-82.0032,2.51,5.33,1111122 
SCCF RECON,ioos:station:SCCF:13:1,2012-08-12T04:00:00Z,26.5255,-82.0032,2.518,5.23,1111122 
SCCF RECON,ioos:station:SCCF:13:1,2012-08-12T05:00:00Z,26.5255,-82.0032,2.52,5.27,1111122 
SCCF RECON,ioos:station:SCCF:13:1,2012-08-12T06:00:00Z,26.5255,-82.0032,2.52,4.97,1111122 
SCCF RECON,ioos:station:SCCF:13:1,2012-08-12T07:00:00Z,26.5255,-82.0032,2.53,4.89,1111122 
SCCF RECON,ioos:station:SCCF:13:1,2012-08-12T08:00:00Z,26.5255,-82.0032,2.51,4.7,1111122 
SCCF RECON,ioos:station:SCCF:13:1,2012-08-12T09:00:00Z,26.5255,-82.0032,2.528,4.76,1111122 
SCCF RECON,ioos:station:SCCF:13:1,2012-08-12T10:00:00Z,26.5255,-82.0032,2.58,2.61,1111122 
SCCF RECON,ioos:station:SCCF:13:1,2012-08-12T11:00:00Z,26.5255,-82.0032,2.645,4.1,1111122 
SCCF RECON,ioos:station:SCCF:13:1,2012-08-12T12:00:00Z,26.5255,-82.0032,2.7,4.0,1111122 